owner,sensor,date,latitude,longitude,vertical_datum,mass_concentration_of_oxygen_in_sea_water,qcFlag 
DISL,ioos:station:DISL:KATA:1,2013-11-01T00:00:00Z,30.2583,-88.2131,4.356,7.67,1111122 
DISL,ioos:station:DISL:KATA:1,2013-11-01T00:30:00Z,30.2583,-88.2131,4.364,7.33,1111122 
DISL,ioos:station:DISL:KATA:1,2013-11-01T01:00:00Z,30.2583,-88.2131,4.363,7.34,1111122 
DISL,ioos:station:DISL:KATA:1,2013-11-01T01:30:00Z,30.2583,-88.2131,4.384,7.24,1111122 
DISL,ioos:station:DISL:KATA:1,2013-11-01T02:00:00Z,30.2583,-88.2131,4.377,7.38,1111122 
DISL,ioos:station:DISL:KATA:1,2013-11-01T02:30:00Z,30.2583,-88.2131,4.394,7.65,1111122 
DISL,ioos:station:DISL:KATA:1,2013-11-01T03:00:00Z,30.2583,-88.2131,4.396,7.56,1111122 
DISL,ioos:station:DISL:KATA:1,2013-11-01T03:30:00Z,30.2583,-88.2131,4.394,7.51,1111122 
DISL,ioos:station:DISL:KATA:1,2013-11-01T04:00:00Z,30.2583,-88.2131,4.382,7.29,1111122 
DISL,ioos:station:DISL:KATA:1,2013-11-01T04:30:00Z,30.2583,-88.2131,4.357,7.09,1111122 
DISL,ioos:station:DISL:KATA:1,2013-11-01T05:00:00Z,30.2583,-88.2131,4.344,7.25,1111122 
DISL,ioos:station:DISL:KATA:1,2013-11-01T05:30:00Z,30.2583,-88.2131,4.306,6.75,1111122 
DISL,ioos:station:DISL:KATA:1,2013-11-01T06:00:00Z,30.2583,-88.2131,4.32,6.9,1111122 
DISL,ioos:station:DISL:KATA:1,2013-11-01T06:30:00Z,30.2583,-88.2131,4.298,7.07,1111122 
DISL,ioos:station:DISL:KATA:1,2013-11-01T07:00:00Z,30.2583,-88.2131,4.279,7.25,1111122 
DISL,ioos:station:DISL:KATA:1,2013-11-01T07:30:00Z,30.2583,-88.2131,4.233,7.19,1111122 
DISL,ioos:station:DISL:KATA:1,2013-11-01T08:00:00Z,30.2583,-88.2131,4.217,7.16,1111122 
DISL,ioos:station:DISL:KATA:1,2013-11-01T08:30:00Z,30.2583,-88.2131,4.208,7.24,1111122 
DISL,ioos:station:DISL:KATA:1,2013-11-01T09:00:00Z,30.2583,-88.2131,4.211,7.34,1111122 
DISL,ioos:station:DISL:KATA:1,2013-11-01T09:30:00Z,30.2583,-88.2131,4.204,7.3,1111122 
DISL,ioos:station:DISL:KATA:1,2013-11-01T10:00:00Z,30.2583,-88.2131,4.197,7.24,1111122 
DISL,ioos:station:DISL:KATA:1,2013-11-01T10:30:00Z,30.2583,-88.2131,4.17,7.29,1111122 
DISL,ioos:station:DISL:KATA:1,2013-11-01T11:00:00Z,30.2583,-88.2131,4.137,7.21,1111122 
DISL,ioos:station:DISL:KATA:1,2013-11-01T11:30:00Z,30.2583,-88.2131,4.105,7.07,1111122 
DISL,ioos:station:DISL:KATA:1,2013-11-01T12:00:00Z,30.2583,-88.2131,4.094,6.95,1111122 
DISL,ioos:station:DISL:KATA:1,2013-11-01T12:30:00Z,30.2583,-88.2131,4.097,6.9,1111122 
DISL,ioos:station:DISL:KATA:1,2013-11-01T13:00:00Z,30.2583,-88.2131,4.159,6.81,1111122 
DISL,ioos:station:DISL:KATA:1,2013-11-01T13:30:00Z,30.2583,-88.2131,4.16,6.89,1111122 
DISL,ioos:station:DISL:KATA:1,2013-11-01T14:00:00Z,30.2583,-88.2131,4.134,6.9,1111122 
DISL,ioos:station:DISL:KATA:1,2013-11-01T14:30:00Z,30.2583,-88.2131,4.127,6.85,1111122 
DISL,ioos:station:DISL:KATA:1,2013-11-01T15:00:00Z,30.2583,-88.2131,4.091,6.97,1111122 
DISL,ioos:station:DISL:KATA:1,2013-11-01T15:30:00Z,30.2583,-88.2131,4.059,7.02,1111122 
DISL,ioos:station:DISL:KATA:1,2013-11-01T16:00:00Z,30.2583,-88.2131,4.052,7.07,1111122 
DISL,ioos:station:DISL:KATA:1,2013-11-01T16:30:00Z,30.2583,-88.2131,4.065,7.23,1111122 
DISL,ioos:station:DISL:KATA:1,2013-11-01T17:00:00Z,30.2583,-88.2131,4.093,7.11,1111122 
DISL,ioos:station:DISL:KATA:1,2013-11-01T17:30:00Z,30.2583,-88.2131,4.122,6.97,1111122 
DISL,ioos:station:DISL:KATA:1,2013-11-01T18:00:00Z,30.2583,-88.2131,4.193,6.91,1111122 
DISL,ioos:station:DISL:KATA:1,2013-11-01T18:30:00Z,30.2583,-88.2131,4.223,6.95,1111122 
DISL,ioos:station:DISL:KATA:1,2013-11-01T19:00:00Z,30.2583,-88.2131,4.25,6.84,1111122 
DISL,ioos:station:DISL:KATA:1,2013-11-01T19:30:00Z,30.2583,-88.2131,4.27,6.77,1111122 
DISL,ioos:station:DISL:KATA:1,2013-11-01T20:00:00Z,30.2583,-88.2131,4.261,6.82,1111122 
DISL,ioos:station:DISL:KATA:1,2013-11-01T20:30:00Z,30.2583,-88.2131,4.269,6.91,1111122 
DISL,ioos:station:DISL:KATA:1,2013-11-01T21:00:00Z,30.2583,-88.2131,4.276,7.01,1111122 
DISL,ioos:station:DISL:KATA:1,2013-11-01T21:30:00Z,30.2583,-88.2131,4.284,6.94,1111122 
DISL,ioos:station:DISL:KATA:1,2013-11-01T22:00:00Z,30.2583,-88.2131,4.308,6.95,1111122 
DISL,ioos:station:DISL:KATA:1,2013-11-01T22:30:00Z,30.2583,-88.2131,4.351,7.0,1111122 
DISL,ioos:station:DISL:KATA:1,2013-11-01T23:00:00Z,30.2583,-88.2131,4.387,7.07,1111122 
DISL,ioos:station:DISL:KATA:1,2013-11-01T23:30:00Z,30.2583,-88.2131,4.427,7.09,1111122 
DISL,ioos:station:DISL:KATA:1,2013-11-02T00:00:00Z,30.2583,-88.2131,4.452,7.14,1111122 
DISL,ioos:station:DISL:KATA:1,2013-11-02T00:30:00Z,30.2583,-88.2131,4.472,7.11,1111122 
DISL,ioos:station:DISL:KATA:1,2013-11-02T01:00:00Z,30.2583,-88.2131,4.481,7.17,1111122 
DISL,ioos:station:DISL:KATA:1,2013-11-02T01:30:00Z,30.2583,-88.2131,4.484,7.45,1111122 
DISL,ioos:station:DISL:KATA:1,2013-11-02T02:00:00Z,30.2583,-88.2131,4.464,7.53,1111122 
DISL,ioos:station:DISL:KATA:1,2013-11-02T02:30:00Z,30.2583,-88.2131,4.447,7.78,1111122 
DISL,ioos:station:DISL:KATA:1,2013-11-02T03:00:00Z,30.2583,-88.2131,4.414,7.76,1111122 
DISL,ioos:station:DISL:KATA:1,2013-11-02T03:30:00Z,30.2583,-88.2131,4.372,7.82,1111122 
DISL,ioos:station:DISL:KATA:1,2013-11-02T04:00:00Z,30.2583,-88.2131,4.338,7.72,1111122 
DISL,ioos:station:DISL:KATA:1,2013-11-02T04:30:00Z,30.2583,-88.2131,4.293,7.68,1111122 
DISL,ioos:station:DISL:KATA:1,2013-11-02T05:00:00Z,30.2583,-88.2131,4.274,7.66,1111122 
DISL,ioos:station:DISL:KATA:1,2013-11-02T05:30:00Z,30.2583,-88.2131,4.242,7.61,1111122 
DISL,ioos:station:DISL:KATA:1,2013-11-02T06:00:00Z,30.2583,-88.2131,4.219,7.57,1111122 
DISL,ioos:station:DISL:KATA:1,2013-11-02T06:30:00Z,30.2583,-88.2131,4.193,7.5,1111122 
DISL,ioos:station:DISL:KATA:1,2013-11-02T07:00:00Z,30.2583,-88.2131,4.17,7.44,1111122 
DISL,ioos:station:DISL:KATA:1,2013-11-02T07:30:00Z,30.2583,-88.2131,4.129,7.36,1111122 
DISL,ioos:station:DISL:KATA:1,2013-11-02T08:00:00Z,30.2583,-88.2131,4.085,7.35,1111122 
DISL,ioos:station:DISL:KATA:1,2013-11-02T08:30:00Z,30.2583,-88.2131,4.051,7.33,1111122 
DISL,ioos:station:DISL:KATA:1,2013-11-02T09:00:00Z,30.2583,-88.2131,4.024,7.36,1111122 
DISL,ioos:station:DISL:KATA:1,2013-11-02T09:30:00Z,30.2583,-88.2131,4.0,7.32,1111122 
DISL,ioos:station:DISL:KATA:1,2013-11-02T10:00:00Z,30.2583,-88.2131,3.995,7.32,1111122 
DISL,ioos:station:DISL:KATA:1,2013-11-02T10:30:00Z,30.2583,-88.2131,3.99,7.32,1111122 
DISL,ioos:station:DISL:KATA:1,2013-11-02T11:00:00Z,30.2583,-88.2131,3.988,7.3,1111122 
DISL,ioos:station:DISL:KATA:1,2013-11-02T11:30:00Z,30.2583,-88.2131,3.996,7.25,1111122 
DISL,ioos:station:DISL:KATA:1,2013-11-02T12:00:00Z,30.2583,-88.2131,4.015,7.26,1111122 
DISL,ioos:station:DISL:KATA:1,2013-11-02T12:30:00Z,30.2583,-88.2131,4.032,7.24,1111122 
DISL,ioos:station:DISL:KATA:1,2013-11-02T13:00:00Z,30.2583,-88.2131,4.03,7.24,1111122 
DISL,ioos:station:DISL:KATA:1,2013-11-02T13:30:00Z,30.2583,-88.2131,4.019,7.26,1111122 
DISL,ioos:station:DISL:KATA:1,2013-11-02T14:00:00Z,30.2583,-88.2131,4.009,7.25,1111122 
DISL,ioos:station:DISL:KATA:1,2013-11-02T14:30:00Z,30.2583,-88.2131,3.997,7.24,1111122 
DISL,ioos:station:DISL:KATA:1,2013-11-02T15:00:00Z,30.2583,-88.2131,3.979,7.18,1111122 
DISL,ioos:station:DISL:KATA:1,2013-11-02T15:30:00Z,30.2583,-88.2131,3.997,7.16,1111122 
DISL,ioos:station:DISL:KATA:1,2013-11-02T16:00:00Z,30.2583,-88.2131,4.02,7.19,1111122 
DISL,ioos:station:DISL:KATA:1,2013-11-02T16:30:00Z,30.2583,-88.2131,4.049,7.19,1111122 
DISL,ioos:station:DISL:KATA:1,2013-11-02T17:00:00Z,30.2583,-88.2131,4.078,7.34,1111122 
DISL,ioos:station:DISL:KATA:1,2013-11-02T17:30:00Z,30.2583,-88.2131,4.104,7.29,1111122 
DISL,ioos:station:DISL:KATA:1,2013-11-02T18:00:00Z,30.2583,-88.2131,4.126,7.61,1111122 
DISL,ioos:station:DISL:KATA:1,2013-11-02T18:30:00Z,30.2583,-88.2131,4.14,7.68,1111122 
DISL,ioos:station:DISL:KATA:1,2013-11-02T19:00:00Z,30.2583,-88.2131,4.145,7.69,1111122 
DISL,ioos:station:DISL:KATA:1,2013-11-02T19:30:00Z,30.2583,-88.2131,4.145,7.82,1111122 
DISL,ioos:station:DISL:KATA:1,2013-11-02T20:00:00Z,30.2583,-88.2131,4.152,7.81,1111122 
DISL,ioos:station:DISL:KATA:1,2013-11-02T20:30:00Z,30.2583,-88.2131,4.152,7.84,1111122 
DISL,ioos:station:DISL:KATA:1,2013-11-02T21:00:00Z,30.2583,-88.2131,4.143,7.82,1111122 
DISL,ioos:station:DISL:KATA:1,2013-11-02T21:30:00Z,30.2583,-88.2131,4.16,7.79,1111122 
DISL,ioos:station:DISL:KATA:1,2013-11-02T22:00:00Z,30.2583,-88.2131,4.177,7.85,1111122 
DISL,ioos:station:DISL:KATA:1,2013-11-02T22:30:00Z,30.2583,-88.2131,4.196,7.84,1111122 
DISL,ioos:station:DISL:KATA:1,2013-11-02T23:00:00Z,30.2583,-88.2131,4.203,7.7,1111122 
DISL,ioos:station:DISL:KATA:1,2013-11-02T23:30:00Z,30.2583,-88.2131,4.209,7.86,1111122 
DISL,ioos:station:DISL:KATA:1,2013-11-03T00:00:00Z,30.2583,-88.2131,4.209,7.91,1111122 
DISL,ioos:station:DISL:KATA:1,2013-11-03T00:30:00Z,30.2583,-88.2131,4.231,7.91,1111122 
DISL,ioos:station:DISL:KATA:1,2013-11-03T01:00:00Z,30.2583,-88.2131,4.243,7.86,1111122 
DISL,ioos:station:DISL:KATA:1,2013-11-03T01:30:00Z,30.2583,-88.2131,4.241,7.92,1111122 
DISL,ioos:station:DISL:KATA:1,2013-11-03T02:00:00Z,30.2583,-88.2131,4.215,7.88,1111122 
DISL,ioos:station:DISL:KATA:1,2013-11-03T02:30:00Z,30.2583,-88.2131,4.187,7.87,1111122 
DISL,ioos:station:DISL:KATA:1,2013-11-03T03:00:00Z,30.2583,-88.2131,4.155,7.68,1111122 
DISL,ioos:station:DISL:KATA:1,2013-11-03T03:30:00Z,30.2583,-88.2131,4.165,7.71,1111122 
DISL,ioos:station:DISL:KATA:1,2013-11-03T04:00:00Z,30.2583,-88.2131,4.142,7.64,1111122 
DISL,ioos:station:DISL:KATA:1,2013-11-03T04:30:00Z,30.2583,-88.2131,4.11,7.72,1111122 
DISL,ioos:station:DISL:KATA:1,2013-11-03T05:00:00Z,30.2583,-88.2131,4.079,7.65,1111122 
DISL,ioos:station:DISL:KATA:1,2013-11-03T05:30:00Z,30.2583,-88.2131,4.049,7.6,1111122 
DISL,ioos:station:DISL:KATA:1,2013-11-03T06:00:00Z,30.2583,-88.2131,4.025,7.6,1111122 
DISL,ioos:station:DISL:KATA:1,2013-11-03T06:30:00Z,30.2583,-88.2131,3.993,7.56,1111122 
DISL,ioos:station:DISL:KATA:1,2013-11-03T07:00:00Z,30.2583,-88.2131,3.952,7.56,1111122 
DISL,ioos:station:DISL:KATA:1,2013-11-03T07:30:00Z,30.2583,-88.2131,3.912,7.53,1111122 
DISL,ioos:station:DISL:KATA:1,2013-11-03T08:00:00Z,30.2583,-88.2131,3.86,7.6,1111122 
DISL,ioos:station:DISL:KATA:1,2013-11-03T08:30:00Z,30.2583,-88.2131,3.814,7.63,1111122 
DISL,ioos:station:DISL:KATA:1,2013-11-03T09:00:00Z,30.2583,-88.2131,3.775,7.62,1111122 
DISL,ioos:station:DISL:KATA:1,2013-11-03T09:30:00Z,30.2583,-88.2131,3.741,7.62,1111122 
DISL,ioos:station:DISL:KATA:1,2013-11-03T10:00:00Z,30.2583,-88.2131,3.731,7.61,1111122 
DISL,ioos:station:DISL:KATA:1,2013-11-03T10:30:00Z,30.2583,-88.2131,3.708,7.62,1111122 
DISL,ioos:station:DISL:KATA:1,2013-11-03T11:00:00Z,30.2583,-88.2131,3.691,7.6,1111122 
DISL,ioos:station:DISL:KATA:1,2013-11-03T11:30:00Z,30.2583,-88.2131,3.693,7.57,1111122 
DISL,ioos:station:DISL:KATA:1,2013-11-03T12:00:00Z,30.2583,-88.2131,3.705,7.54,1111122 
DISL,ioos:station:DISL:KATA:1,2013-11-03T12:30:00Z,30.2583,-88.2131,3.73,7.52,1111122 
DISL,ioos:station:DISL:KATA:1,2013-11-03T13:00:00Z,30.2583,-88.2131,3.769,7.44,1111122 
DISL,ioos:station:DISL:KATA:1,2013-11-03T13:30:00Z,30.2583,-88.2131,3.805,7.42,1111122 
DISL,ioos:station:DISL:KATA:1,2013-11-03T14:00:00Z,30.2583,-88.2131,3.835,7.38,1111122 
DISL,ioos:station:DISL:KATA:1,2013-11-03T14:30:00Z,30.2583,-88.2131,3.864,7.41,1111122 
DISL,ioos:station:DISL:KATA:1,2013-11-03T15:00:00Z,30.2583,-88.2131,3.893,7.4,1111122 
DISL,ioos:station:DISL:KATA:1,2013-11-03T15:30:00Z,30.2583,-88.2131,3.912,7.52,1111122 
DISL,ioos:station:DISL:KATA:1,2013-11-03T16:00:00Z,30.2583,-88.2131,3.929,7.69,1111122 
DISL,ioos:station:DISL:KATA:1,2013-11-03T16:30:00Z,30.2583,-88.2131,3.944,7.7,1111122 
DISL,ioos:station:DISL:KATA:1,2013-11-03T17:00:00Z,30.2583,-88.2131,3.962,7.71,1111122 
DISL,ioos:station:DISL:KATA:1,2013-11-03T17:30:00Z,30.2583,-88.2131,3.984,7.71,1111122 
DISL,ioos:station:DISL:KATA:1,2013-11-03T18:00:00Z,30.2583,-88.2131,4.007,7.81,1111122 
DISL,ioos:station:DISL:KATA:1,2013-11-03T18:30:00Z,30.2583,-88.2131,4.03,7.95,1111122 
DISL,ioos:station:DISL:KATA:1,2013-11-03T19:00:00Z,30.2583,-88.2131,4.05,7.92,1111122 
DISL,ioos:station:DISL:KATA:1,2013-11-03T19:30:00Z,30.2583,-88.2131,4.074,8.05,1111122 
DISL,ioos:station:DISL:KATA:1,2013-11-03T20:00:00Z,30.2583,-88.2131,4.087,7.95,1111122 
DISL,ioos:station:DISL:KATA:1,2013-11-03T20:30:00Z,30.2583,-88.2131,4.098,8.02,1111122 
DISL,ioos:station:DISL:KATA:1,2013-11-03T21:00:00Z,30.2583,-88.2131,4.108,7.94,1111122 
DISL,ioos:station:DISL:KATA:1,2013-11-03T21:30:00Z,30.2583,-88.2131,4.124,7.77,1111122 
DISL,ioos:station:DISL:KATA:1,2013-11-03T22:00:00Z,30.2583,-88.2131,4.138,7.92,1111122 
DISL,ioos:station:DISL:KATA:1,2013-11-03T22:30:00Z,30.2583,-88.2131,4.155,7.98,1111122 
DISL,ioos:station:DISL:KATA:1,2013-11-03T23:00:00Z,30.2583,-88.2131,4.174,7.77,1111122 
DISL,ioos:station:DISL:KATA:1,2013-11-03T23:30:00Z,30.2583,-88.2131,4.198,7.77,1111122 
DISL,ioos:station:DISL:KATA:1,2013-11-04T00:00:00Z,30.2583,-88.2131,4.234,7.88,1111122 
DISL,ioos:station:DISL:KATA:1,2013-11-04T00:30:00Z,30.2583,-88.2131,4.265,7.81,1111122 
DISL,ioos:station:DISL:KATA:1,2013-11-04T01:00:00Z,30.2583,-88.2131,4.295,7.87,1111122 
DISL,ioos:station:DISL:KATA:1,2013-11-04T01:30:00Z,30.2583,-88.2131,4.314,7.86,1111122 
DISL,ioos:station:DISL:KATA:1,2013-11-04T02:00:00Z,30.2583,-88.2131,4.335,7.74,1111122 
DISL,ioos:station:DISL:KATA:1,2013-11-04T02:30:00Z,30.2583,-88.2131,4.349,7.69,1111122 
DISL,ioos:station:DISL:KATA:1,2013-11-04T03:00:00Z,30.2583,-88.2131,4.361,7.63,1111122 
DISL,ioos:station:DISL:KATA:1,2013-11-04T03:30:00Z,30.2583,-88.2131,4.352,7.61,1111122 
DISL,ioos:station:DISL:KATA:1,2013-11-04T04:00:00Z,30.2583,-88.2131,4.334,7.52,1111122 
DISL,ioos:station:DISL:KATA:1,2013-11-04T04:30:00Z,30.2583,-88.2131,4.303,7.45,1111122 
DISL,ioos:station:DISL:KATA:1,2013-11-04T05:00:00Z,30.2583,-88.2131,4.266,7.36,1111122 
DISL,ioos:station:DISL:KATA:1,2013-11-04T05:30:00Z,30.2583,-88.2131,4.222,7.34,1111122 
DISL,ioos:station:DISL:KATA:1,2013-11-04T06:00:00Z,30.2583,-88.2131,4.182,7.58,1111122 
DISL,ioos:station:DISL:KATA:1,2013-11-04T06:30:00Z,30.2583,-88.2131,4.129,7.65,1111122 
DISL,ioos:station:DISL:KATA:1,2013-11-04T07:00:00Z,30.2583,-88.2131,4.081,7.69,1111122 
DISL,ioos:station:DISL:KATA:1,2013-11-04T07:30:00Z,30.2583,-88.2131,4.023,7.78,1111122 
DISL,ioos:station:DISL:KATA:1,2013-11-04T08:00:00Z,30.2583,-88.2131,3.971,7.84,1111122 
DISL,ioos:station:DISL:KATA:1,2013-11-04T08:30:00Z,30.2583,-88.2131,3.909,7.86,1111122 
DISL,ioos:station:DISL:KATA:1,2013-11-04T09:00:00Z,30.2583,-88.2131,3.857,7.78,1111122 
DISL,ioos:station:DISL:KATA:1,2013-11-04T09:30:00Z,30.2583,-88.2131,3.814,7.69,1111122 
DISL,ioos:station:DISL:KATA:1,2013-11-04T10:00:00Z,30.2583,-88.2131,3.764,7.74,1111122 
DISL,ioos:station:DISL:KATA:1,2013-11-04T10:30:00Z,30.2583,-88.2131,3.728,7.73,1111122 
DISL,ioos:station:DISL:KATA:1,2013-11-04T11:00:00Z,30.2583,-88.2131,3.69,7.79,1111122 
DISL,ioos:station:DISL:KATA:1,2013-11-04T11:30:00Z,30.2583,-88.2131,3.678,7.77,1111122 
DISL,ioos:station:DISL:KATA:1,2013-11-04T12:00:00Z,30.2583,-88.2131,3.673,7.76,1111122 
DISL,ioos:station:DISL:KATA:1,2013-11-04T12:30:00Z,30.2583,-88.2131,3.675,7.74,1111122 
DISL,ioos:station:DISL:KATA:1,2013-11-04T13:00:00Z,30.2583,-88.2131,3.682,7.73,1111122 
DISL,ioos:station:DISL:KATA:1,2013-11-04T13:30:00Z,30.2583,-88.2131,3.682,7.73,1111122 
DISL,ioos:station:DISL:KATA:1,2013-11-04T14:00:00Z,30.2583,-88.2131,3.674,7.74,1111122 
DISL,ioos:station:DISL:KATA:1,2013-11-04T14:30:00Z,30.2583,-88.2131,3.669,7.78,1111122 
DISL,ioos:station:DISL:KATA:1,2013-11-04T15:00:00Z,30.2583,-88.2131,3.676,7.73,1111122 
DISL,ioos:station:DISL:KATA:1,2013-11-04T15:30:00Z,30.2583,-88.2131,3.693,7.83,1111122 
DISL,ioos:station:DISL:KATA:1,2013-11-04T16:00:00Z,30.2583,-88.2131,3.702,7.8,1111122 
DISL,ioos:station:DISL:KATA:1,2013-11-04T16:30:00Z,30.2583,-88.2131,3.715,7.85,1111122 
DISL,ioos:station:DISL:KATA:1,2013-11-04T17:00:00Z,30.2583,-88.2131,3.743,7.83,1111122 
DISL,ioos:station:DISL:KATA:1,2013-11-04T17:30:00Z,30.2583,-88.2131,3.777,7.92,1111122 
DISL,ioos:station:DISL:KATA:1,2013-11-04T18:00:00Z,30.2583,-88.2131,3.797,7.98,1111122 
DISL,ioos:station:DISL:KATA:1,2013-11-04T18:30:00Z,30.2583,-88.2131,3.821,8.04,1111122 
DISL,ioos:station:DISL:KATA:1,2013-11-04T19:00:00Z,30.2583,-88.2131,3.841,8.02,1111122 
DISL,ioos:station:DISL:KATA:1,2013-11-04T19:30:00Z,30.2583,-88.2131,3.863,8.05,1111122 
DISL,ioos:station:DISL:KATA:1,2013-11-04T20:00:00Z,30.2583,-88.2131,3.895,8.08,1111122 
DISL,ioos:station:DISL:KATA:1,2013-11-04T20:30:00Z,30.2583,-88.2131,3.924,8.09,1111122 
DISL,ioos:station:DISL:KATA:1,2013-11-04T21:00:00Z,30.2583,-88.2131,3.964,8.01,1111122 
DISL,ioos:station:DISL:KATA:1,2013-11-04T21:30:00Z,30.2583,-88.2131,4.003,8.02,1111122 
DISL,ioos:station:DISL:KATA:1,2013-11-04T22:00:00Z,30.2583,-88.2131,4.038,7.95,1111122 
DISL,ioos:station:DISL:KATA:1,2013-11-04T22:30:00Z,30.2583,-88.2131,4.066,7.91,1111122 
DISL,ioos:station:DISL:KATA:1,2013-11-04T23:00:00Z,30.2583,-88.2131,4.09,7.91,1111122 
DISL,ioos:station:DISL:KATA:1,2013-11-04T23:30:00Z,30.2583,-88.2131,4.131,7.88,1111122 
DISL,ioos:station:DISL:KATA:1,2013-11-05T00:00:00Z,30.2583,-88.2131,4.171,7.84,1111122 
DISL,ioos:station:DISL:KATA:1,2013-11-05T00:30:00Z,30.2583,-88.2131,4.202,7.82,1111122 
DISL,ioos:station:DISL:KATA:1,2013-11-05T01:00:00Z,30.2583,-88.2131,4.247,7.82,1111122 
DISL,ioos:station:DISL:KATA:1,2013-11-05T01:30:00Z,30.2583,-88.2131,4.296,7.85,1111122 
DISL,ioos:station:DISL:KATA:1,2013-11-05T02:00:00Z,30.2583,-88.2131,4.347,7.81,1111122 
DISL,ioos:station:DISL:KATA:1,2013-11-05T02:30:00Z,30.2583,-88.2131,4.385,7.8,1111122 
DISL,ioos:station:DISL:KATA:1,2013-11-05T03:00:00Z,30.2583,-88.2131,4.41,7.74,1111122 
DISL,ioos:station:DISL:KATA:1,2013-11-05T03:30:00Z,30.2583,-88.2131,4.419,7.74,1111122 
DISL,ioos:station:DISL:KATA:1,2013-11-05T04:00:00Z,30.2583,-88.2131,4.415,7.71,1111122 
DISL,ioos:station:DISL:KATA:1,2013-11-05T04:30:00Z,30.2583,-88.2131,4.416,7.68,1111122 
DISL,ioos:station:DISL:KATA:1,2013-11-05T05:00:00Z,30.2583,-88.2131,4.398,7.78,1111122 
DISL,ioos:station:DISL:KATA:1,2013-11-05T05:30:00Z,30.2583,-88.2131,4.379,7.76,1111122 
DISL,ioos:station:DISL:KATA:1,2013-11-05T06:00:00Z,30.2583,-88.2131,4.349,7.55,1111122 
DISL,ioos:station:DISL:KATA:1,2013-11-05T06:30:00Z,30.2583,-88.2131,4.328,7.6,1111122 
DISL,ioos:station:DISL:KATA:1,2013-11-05T07:00:00Z,30.2583,-88.2131,4.306,7.63,1111122 
DISL,ioos:station:DISL:KATA:1,2013-11-05T07:30:00Z,30.2583,-88.2131,4.284,7.87,1111122 
DISL,ioos:station:DISL:KATA:1,2013-11-05T08:00:00Z,30.2583,-88.2131,4.246,7.9,1111122 
DISL,ioos:station:DISL:KATA:1,2013-11-05T08:30:00Z,30.2583,-88.2131,4.183,7.77,1111122 
DISL,ioos:station:DISL:KATA:1,2013-11-05T09:00:00Z,30.2583,-88.2131,4.137,7.76,1111122 
DISL,ioos:station:DISL:KATA:1,2013-11-05T09:30:00Z,30.2583,-88.2131,4.078,7.78,1111122 
DISL,ioos:station:DISL:KATA:1,2013-11-05T10:00:00Z,30.2583,-88.2131,4.017,7.76,1111122 
DISL,ioos:station:DISL:KATA:1,2013-11-05T10:30:00Z,30.2583,-88.2131,3.918,7.73,1111122 
DISL,ioos:station:DISL:KATA:1,2013-11-05T11:00:00Z,30.2583,-88.2131,3.893,7.75,1111122 
DISL,ioos:station:DISL:KATA:1,2013-11-05T11:30:00Z,30.2583,-88.2131,3.836,7.82,1111122 
DISL,ioos:station:DISL:KATA:1,2013-11-05T12:00:00Z,30.2583,-88.2131,3.8,7.9,1111122 
DISL,ioos:station:DISL:KATA:1,2013-11-05T12:30:00Z,30.2583,-88.2131,3.75,7.97,1111122 
DISL,ioos:station:DISL:KATA:1,2013-11-05T13:00:00Z,30.2583,-88.2131,3.74,7.93,1111122 
DISL,ioos:station:DISL:KATA:1,2013-11-05T13:30:00Z,30.2583,-88.2131,3.749,7.98,1111122 
DISL,ioos:station:DISL:KATA:1,2013-11-05T14:00:00Z,30.2583,-88.2131,3.759,7.99,1111122 
DISL,ioos:station:DISL:KATA:1,2013-11-05T14:30:00Z,30.2583,-88.2131,3.769,7.97,1111122 
DISL,ioos:station:DISL:KATA:1,2013-11-05T15:00:00Z,30.2583,-88.2131,3.778,7.94,1111122 
DISL,ioos:station:DISL:KATA:1,2013-11-05T15:30:00Z,30.2583,-88.2131,3.789,7.93,1111122 
DISL,ioos:station:DISL:KATA:1,2013-11-05T16:00:00Z,30.2583,-88.2131,3.814,7.86,1111122 
DISL,ioos:station:DISL:KATA:1,2013-11-05T16:30:00Z,30.2583,-88.2131,3.834,7.9,1111122 
DISL,ioos:station:DISL:KATA:1,2013-11-05T17:00:00Z,30.2583,-88.2131,3.846,7.86,1111122 
DISL,ioos:station:DISL:KATA:1,2013-11-05T17:30:00Z,30.2583,-88.2131,3.88,7.98,1111122 
DISL,ioos:station:DISL:KATA:1,2013-11-05T18:00:00Z,30.2583,-88.2131,3.916,7.98,1111122 
DISL,ioos:station:DISL:KATA:1,2013-11-05T18:30:00Z,30.2583,-88.2131,3.954,8.02,1111122 
DISL,ioos:station:DISL:KATA:1,2013-11-05T19:00:00Z,30.2583,-88.2131,3.975,7.97,1111122 
DISL,ioos:station:DISL:KATA:1,2013-11-05T19:30:00Z,30.2583,-88.2131,4.005,8.01,1111122 
DISL,ioos:station:DISL:KATA:1,2013-11-05T20:00:00Z,30.2583,-88.2131,4.02,8.1,1111122 
DISL,ioos:station:DISL:KATA:1,2013-11-05T20:30:00Z,30.2583,-88.2131,4.047,8.16,1111122 
DISL,ioos:station:DISL:KATA:1,2013-11-05T21:00:00Z,30.2583,-88.2131,4.081,8.09,1111122 
DISL,ioos:station:DISL:KATA:1,2013-11-05T21:30:00Z,30.2583,-88.2131,4.081,8.16,1111122 
DISL,ioos:station:DISL:KATA:1,2013-11-05T22:00:00Z,30.2583,-88.2131,4.103,8.21,1111122 
DISL,ioos:station:DISL:KATA:1,2013-11-05T22:30:00Z,30.2583,-88.2131,4.134,8.18,1111122 
DISL,ioos:station:DISL:KATA:1,2013-11-05T23:00:00Z,30.2583,-88.2131,4.165,7.99,1111122 
DISL,ioos:station:DISL:KATA:1,2013-11-05T23:30:00Z,30.2583,-88.2131,4.188,8.12,1111122 
DISL,ioos:station:DISL:KATA:1,2013-11-06T00:00:00Z,30.2583,-88.2131,4.229,8.13,1111122 
DISL,ioos:station:DISL:KATA:1,2013-11-06T00:30:00Z,30.2583,-88.2131,4.261,8.01,1111122 
DISL,ioos:station:DISL:KATA:1,2013-11-06T01:00:00Z,30.2583,-88.2131,4.303,7.95,1111122 
DISL,ioos:station:DISL:KATA:1,2013-11-06T01:30:00Z,30.2583,-88.2131,4.348,8.04,1111122 
DISL,ioos:station:DISL:KATA:1,2013-11-06T02:00:00Z,30.2583,-88.2131,4.401,7.98,1111122 
DISL,ioos:station:DISL:KATA:1,2013-11-06T02:30:00Z,30.2583,-88.2131,4.441,7.98,1111122 
DISL,ioos:station:DISL:KATA:1,2013-11-06T03:00:00Z,30.2583,-88.2131,4.464,8.04,1111122 
DISL,ioos:station:DISL:KATA:1,2013-11-06T03:30:00Z,30.2583,-88.2131,4.47,7.93,1111122 
DISL,ioos:station:DISL:KATA:1,2013-11-06T04:00:00Z,30.2583,-88.2131,4.465,7.94,1111122 
DISL,ioos:station:DISL:KATA:1,2013-11-06T04:30:00Z,30.2583,-88.2131,4.466,7.94,1111122 
DISL,ioos:station:DISL:KATA:1,2013-11-06T05:00:00Z,30.2583,-88.2131,4.44,7.9,1111122 
DISL,ioos:station:DISL:KATA:1,2013-11-06T05:30:00Z,30.2583,-88.2131,4.422,7.85,1111122 
DISL,ioos:station:DISL:KATA:1,2013-11-06T06:00:00Z,30.2583,-88.2131,4.4,7.82,1111122 
DISL,ioos:station:DISL:KATA:1,2013-11-06T06:30:00Z,30.2583,-88.2131,4.403,7.74,1111122 
DISL,ioos:station:DISL:KATA:1,2013-11-06T07:00:00Z,30.2583,-88.2131,4.392,7.71,1111122 
DISL,ioos:station:DISL:KATA:1,2013-11-06T07:30:00Z,30.2583,-88.2131,4.369,7.69,1111122 
DISL,ioos:station:DISL:KATA:1,2013-11-06T08:00:00Z,30.2583,-88.2131,4.343,7.65,1111122 
DISL,ioos:station:DISL:KATA:1,2013-11-06T08:30:00Z,30.2583,-88.2131,4.304,7.9,1111122 
DISL,ioos:station:DISL:KATA:1,2013-11-06T09:00:00Z,30.2583,-88.2131,4.264,8.01,1111122 
DISL,ioos:station:DISL:KATA:1,2013-11-06T09:30:00Z,30.2583,-88.2131,4.214,8.04,1111122 
DISL,ioos:station:DISL:KATA:1,2013-11-06T10:00:00Z,30.2583,-88.2131,4.16,8.05,1111122 
DISL,ioos:station:DISL:KATA:1,2013-11-06T10:30:00Z,30.2583,-88.2131,4.106,7.97,1111122 
DISL,ioos:station:DISL:KATA:1,2013-11-06T11:00:00Z,30.2583,-88.2131,4.048,7.96,1111122 
DISL,ioos:station:DISL:KATA:1,2013-11-06T11:30:00Z,30.2583,-88.2131,3.995,7.97,1111122 
DISL,ioos:station:DISL:KATA:1,2013-11-06T12:00:00Z,30.2583,-88.2131,3.939,7.94,1111122 
DISL,ioos:station:DISL:KATA:1,2013-11-06T12:30:00Z,30.2583,-88.2131,3.892,7.93,1111122 
DISL,ioos:station:DISL:KATA:1,2013-11-06T13:00:00Z,30.2583,-88.2131,3.797,7.93,1111122 
DISL,ioos:station:DISL:KATA:1,2013-11-06T13:30:00Z,30.2583,-88.2131,3.807,7.95,1111122 
DISL,ioos:station:DISL:KATA:1,2013-11-06T14:00:00Z,30.2583,-88.2131,3.777,7.89,1111122 
DISL,ioos:station:DISL:KATA:1,2013-11-06T14:30:00Z,30.2583,-88.2131,3.777,7.9,1111122 
DISL,ioos:station:DISL:KATA:1,2013-11-06T15:00:00Z,30.2583,-88.2131,3.78,7.87,1111122 
DISL,ioos:station:DISL:KATA:1,2013-11-06T15:30:00Z,30.2583,-88.2131,3.806,7.89,1111122 